Weather History for Deming, NM

Change the Weather History Date:

Monday, July 22, 2013

  Actual Average Record
Temperature  
Mean Temperature 78 °F 80 °F  
Max Temperature 93 °F 94 °F 104 °F (1963)
Min Temperature 66 °F 67 °F 58 °F (1986)
Cooling Degree Days 14    
Growing Degree Days 28 (Base 50)    
Moisture  
Dew Point 61 °F    
Average Humidity 61    
Maximum Humidity 87    
Minimum Humidity 34    
Precipitation  
Precipitation 0.05 in 0.09 in 0.68 in (2014)
Month to date precipitation 1.18 1.50  
Year to date precipitation 1.69 4.61  
Sea Level Pressure  
Sea Level Pressure 29.86 in    
Wind  
Wind Speed 10 mph (West)    
Max Wind Speed 29 mph    
Max Gust Speed 36 mph    
Visibility 10 miles    
Events Rain , Thunderstorm    
T = Trace of Precipitation, MM = Missing Value Source: NWS Daily Summary

Daily Weather History Graph

Daily Weather History Graph

Search for Another Location

Airport:

Trip Planner

Search our weather history database for the weather conditions in past years. The results will help you decide how hot, cold, wet, or windy it might be!

Date:

Astronomy

Jul. 22, 2013 Rise Set
Actual Time 6:19 AM MDT 8:14 PM MDT
Civil Twilight 5:52 AM MDT 8:42 PM MDT
Nautical Twilight 5:18 AM MDT 9:15 PM MDT
Astronomical Twilight 4:43 AM MDT 9:50 PM MDT
Moon 8:09 PM MDT (7/22) 6:15 AM MDT (7/22)
Length of Visible Light 14h 50m
Length of Day
13h 55m
Full, 100% of the Moon is Illuminated
Jul 22
Full
Jul 22
Full
Jul 29
Last Quarter
Aug 6
New
Aug 14
First Quarter

Hourly Weather History & Observations

Time (MDT) Temp. Heat Index Dew Point Humidity Pressure Visibility Wind Dir Wind Speed Gust Speed Precip Events Conditions
12:53 AM 70.0 °F - 64.9 °F 84% 30.06 in 10.0 mi South 6.9 mph - N/A   Clear
1:53 AM 69.1 °F - 64.0 °F 84% 29.81 in 10.0 mi SSW 8.1 mph - N/A   Clear
2:53 AM 69.1 °F - 62.1 °F 78% 29.80 in 10.0 mi WSW 4.6 mph - N/A   Overcast
3:53 AM 69.1 °F - 63.0 °F 81% 29.79 in 10.0 mi WSW 6.9 mph - N/A   Overcast
4:53 AM 68.0 °F - 63.0 °F 84% 29.85 in 10.0 mi SW 6.9 mph - N/A   Clear
5:53 AM 66.0 °F - 62.1 °F 87% 29.85 in 10.0 mi SSW 4.6 mph - N/A   Clear
6:53 AM 66.0 °F - 62.1 °F 87% 29.86 in 10.0 mi SSW 6.9 mph - N/A   Clear
7:53 AM 71.1 °F - 63.0 °F 75% 29.87 in 10.0 mi WSW 5.8 mph - N/A   Clear
8:53 AM 75.9 °F - 63.0 °F 64% 29.86 in 10.0 mi WSW 4.6 mph - N/A   Clear
9:53 AM 79.0 °F - 61.0 °F 54% 29.86 in 10.0 mi Variable 6.9 mph - N/A   Clear
10:53 AM 82.9 °F 83.2 °F 60.1 °F 46% 29.86 in 10.0 mi West 6.9 mph - N/A   Clear
11:53 AM 87.1 °F 86.1 °F 57.9 °F 37% 29.83 in 10.0 mi WNW 10.4 mph - N/A   Clear
12:53 PM 90.0 °F 88.6 °F 57.0 °F 33% 29.81 in 10.0 mi West 8.1 mph 23.0 mph N/A   Scattered Clouds
1:53 PM 88.0 °F 86.5 °F 55.9 °F 34% 29.78 in 10.0 mi West 15.0 mph 24.2 mph N/A   Mostly Cloudy
2:15 PM 91.4 °F 89.9 °F 57.2 °F 31% 30.01 in 10.0 mi WSW 17.3 mph 26.5 mph N/A Thunderstorm Mostly Cloudy
2:30 PM 91.4 °F 89.4 °F 55.4 °F 29% 30.01 in 10.0 mi WSW 17.3 mph 29.9 mph N/A   Mostly Cloudy
2:48 PM 87.8 °F 86.5 °F 57.2 °F 35% 30.02 in 10.0 mi NW 20.7 mph 31.1 mph N/A Thunderstorm Mostly Cloudy
2:53 PM 84.0 °F 84.0 °F 60.1 °F 44% 29.79 in 10.0 mi NNW 27.6 mph 34.5 mph N/A Thunderstorm Mostly Cloudy
3:00 PM 78.8 °F - 60.8 °F 54% 30.02 in 9.0 mi NNW 25.3 mph 35.7 mph N/A Thunderstorm Overcast
3:27 PM 77.0 °F - 59.0 °F 54% 30.02 in 10.0 mi NNW 21.9 mph 32.2 mph N/A   Overcast
3:53 PM 73.0 °F - 61.0 °F 66% 29.84 in 2.5 mi WNW 13.8 mph 23.0 mph 0.04 in Rain Heavy Rain
4:00 PM 73.4 °F - 62.6 °F 69% 30.02 in 4.0 mi West 12.7 mph - 0.01 in Rain Rain
4:53 PM 78.1 °F - 63.0 °F 60% 29.77 in 10.0 mi NNW 9.2 mph - 0.01 in   Clear
5:53 PM 86.0 °F 86.8 °F 63.0 °F 46% 29.75 in 10.0 mi NW 10.4 mph - N/A   Clear
6:53 PM 87.1 °F 86.5 °F 59.0 °F 39% 29.74 in 10.0 mi NW 13.8 mph 19.6 mph N/A   Clear
7:53 PM 84.9 °F 84.2 °F 57.9 °F 40% 29.74 in 10.0 mi WNW 13.8 mph - N/A   Clear
8:53 PM 80.1 °F 81.1 °F 61.0 °F 52% 29.75 in 10.0 mi NW 9.2 mph - N/A   Clear
9:53 PM 79.0 °F - 60.1 °F 52% 29.78 in 10.0 mi West 11.5 mph - N/A   Clear
10:53 PM 75.0 °F - 60.1 °F 60% 29.82 in 10.0 mi SW 16.1 mph 25.3 mph N/A   Clear
11:53 PM 73.0 °F - 62.1 °F 68% 29.83 in 10.0 mi SW 9.2 mph - N/A   Partly Cloudy